Home > Time Zones > World Clock > Weather > Spain > Ceuta > Past weeks

Flag for Spain Weather past 2 weeks in Ceuta, Ceuta, Spain

Now
63 °F

Passing clouds.


Feels Like: 63 °F
Forecast: 59 / 70 °F
Wind: 20 mph from West

Location: Gibraltar Airport

Current Time: Mar 27, 2015 at 11:36:17 AM

Latest Report: Mar 27, 2015 at 10:50 AM


Visibility: N/A

Pressure: 30.33 "Hg

Humidity: 64%

Dew point: 50 °F

Location of CeutaLocation

Historic Weather in Ceuta — Graph

°F

Ceuta temperature yesterday

Maximum temperature yesterday: 66 °F (at 2:50 PM)
Minimum temperature yesterday: 52 °F (at 3:50 AM)
Average temperature yesterday: 57 °F

Past Weeks' High & Low Weather Summary

 TemperatureHumidityPressure
High68 °F (Mar 16, 2:50 PM)100% (Mar 21, 5:50 AM)30.33 "Hg (Mar 21, 5:50 AM)
Low50 °F (Mar 18, 12:50 AM)24% (Mar 25, 4:50 PM)29.62 "Hg (Mar 24, 12:50 AM)
Average57 °F77%29.92 "Hg
* Reported Mar 12 9:50 AM — Mar 27 9:50 AM, Ceuta, Weather by CustomWeather, © 2015

Note: Actual official high and low records may vary slightly from our data, if they occured in-between our weather recording intervals... More about our weather records

Advertising

Ceuta weather history for previous 24 hours

 ConditionsComfort  
Time TempWeatherWind HumidityBarometerVisibility
9:50 AM
Fri, Mar 27
61 °FPassing clouds.14 mph72%30.33 "HgN/A
8:50 AM59 °FPassing clouds.12 mph77%30.33 "HgN/A
7:50 AM57 °FPassing clouds.10 mph82%30.30 "HgN/A
6:50 AM57 °FPassing clouds.10 mph77%30.30 "HgN/A
5:50 AM57 °FClear.12 mph82%30.27 "HgN/A
4:50 AM57 °FClear.10 mph82%30.24 "HgN/A
3:50 AM57 °FClear.13 mph88%30.24 "HgN/A
2:50 AM59 °FClear.14 mph82%30.27 "HgN/A
1:50 AM59 °FClear.20 mph77%30.24 "HgN/A
12:50 AM59 °FPassing clouds.16 mph72%30.27 "HgN/A
11:50 PM
Thu, Mar 26
59 °FPassing clouds.18 mph68%30.27 "HgN/A
10:50 PM57 °FClear.12 mph72%30.27 "Hg10 mi
9:50 PM59 °FClear.9 mph63%30.27 "Hg10 mi
8:50 PM61 °FClear.12 mph45%30.21 "Hg10 mi
7:50 PM61 °FPassing clouds.12 mph52%30.21 "HgN/A
6:50 PM61 °FPartly sunny.12 mph59%30.18 "HgN/A
5:50 PM59 °FBroken clouds.15 mph63%30.15 "HgN/A
4:50 PM64 °FPartly sunny.18 mph43%30.15 "HgN/A
3:50 PM63 °FBroken clouds.20 mph49%30.12 "HgN/A
2:50 PM66 °FPartly sunny.13 mph35%30.12 "HgN/A
1:50 PM64 °FSunny.12 mph40%30.12 "Hg10 mi
Weather by CustomWeather, © 2015

See weather overviewHow to use our weather pages